Simultaneous Nadir Overpasses (SNOs) Predictions

Prediction of SNOs between LANDSAT-8 and NOAA-19 Satellite Orbit:

Table of predicted SNOs for the next 14.0 days since TLE Epoch: 1/26/2018
Index Date (LANDSAT-8) Time (LANDSAT-8) Lat,Lon (LANDSAT-8) SZA (LANDSAT-8 ) Date (NOAA-19) Time (NOAA-19) Lat,Lon (NOAA-19) SZA (NOAA-19 ) Distance(km) Time Diff (sec)
1 01/27/2018 09:12:01 77.16, 54.05 95.66 01/27/2018 09:10:57 77.13, 54.05 95.62 4.01 64
2 01/27/2018 10:01:30 -77.08,-138.63 84.45 01/27/2018 10:02:02 -77.11,-138.66 84.41 3.60 32
3 01/29/2018 14:45:45 -77.13, 150.50 84.97 01/29/2018 14:44:43 -77.16, 150.51 84.95 3.40 62
4 01/29/2018 15:35:11 77.12, -41.90 95.01 01/29/2018 15:35:37 77.09, -41.87 94.98 3.82 26
5 01/31/2018 20:19:26 77.17,-112.79 94.45 01/31/2018 20:18:18 77.15,-112.73 94.42 2.88 68
6 01/31/2018 21:08:54 -77.14, 54.73 85.60 01/31/2018 21:09:23 -77.12, 54.60 85.61 3.58 29
7 02/03/2018 01:53:09 -77.19, -16.16 86.18 02/03/2018 01:52:04 -77.18, -16.28 86.19 2.89 65
8 02/03/2018 02:42:36 77.12, 151.24 93.75 02/03/2018 02:42:58 77.11, 151.33 93.74 2.47 22
9 02/05/2018 07:26:51 77.17, 80.34 93.14 02/05/2018 07:25:39 77.17, 80.44 93.14 2.83 72
10 02/05/2018 08:16:19 -77.14,-112.13 86.91 02/05/2018 08:16:44 -77.16,-112.24 86.89 3.25 25
11 02/07/2018 13:00:33 -77.18, 176.97 87.54 02/07/2018 12:59:23 -77.18, 177.03 87.54 1.59 70




NCC Satellite Simultaneous Nadir Overpasses (SNOs) Prediction Service
